Theta_e
348 353 360 362 362 364 363 366 368 368 368 368 368 367 366 366 365 365 365 364 363 363 363 362 360 362 363 361 361 361 361 361 360 360 361 360 358 358 358 358 358 354 358
351 354 363 364 367 366 367 368 368 368 367 367 367 366 366 367 365 364 365 364 363 363 361 358 358 360 362 362 361 360 361 360 359 359 359 360 359 358 359 356 356 356 356
352 357 359 364 366 365 367 368 368 368 366 366 368 366 365 365 365 364 364 364 363 363 360 359 360 358 360 361 360 359 360 359 358 358 359 357 356 358 356 357 357 354 354
354 358 360 364 364 363 366 367 368 367 365 365 364 364 365 365 365 365 363 363 361 358 358 360 360 359 360 360 359 359 359 359 358 358 355 356 356 357 356 357 355 357 355
353 358 360 365 364 362 364 366 367 368 366 367 365 365 365 362 360 360 357 355 356 355 354 356 358 359 358 358 357 356 355 355 356 354 352 345 351 355 354 356 356 357 354
352 357 363 366 363 362 362 364 366 366 366 366 365 364 365 363 359 357 357 362 362 363 361 361 360 358 358 357 357 357 357 356 357 355 353 346 347 352 357 358 359 355 351
347 357 359 367 366 363 363 364 365 365 366 366 365 364 363 362 359 357 358 362 362 357 357 357 358 358 356 355 355 356 357 359 356 350 353 350 349 352 354 357 357 354 351
349 354 358 365 365 364 363 363 364 364 365 365 365 365 365 363 358 357 354 358 361 357 360 361 359 358 357 357 358 358 357 356 354 350 353 353 353 356 356 355 356 355 351
351 353 355 358 361 362 362 363 363 365 364 362 362 362 363 363 361 359 359 358 356 357 356 358 358 358 358 358 359 360 360 358 354 351 351 353 356 358 360 358 355 352 355
350 351 353 355 354 355 356 363 363 361 360 360 360 361 361 361 361 360 362 361 360 358 358 358 360 361 361 360 359 359 359 359 352 351 352 350 356 359 359 359 355 354 358
349 350 350 351 352 352 355 359 363 362 358 358 358 359 359 355 357 358 359 359 358 359 360 359 360 361 361 361 360 359 358 357 354 353 353 352 355 357 359 362 360 357 355
344 347 348 348 351 352 357 355 355 356 356 355 356 355 355 354 353 358 360 362 360 359 361 360 360 361 359 356 355 357 354 350 351 353 352 354 358 356 359 362 363 361 359
345 347 347 347 350 350 353 351 352 350 350 351 352 351 350 351 351 351 352 356 355 357 356 355 354 352 346 351 353 352 351 351 351 352 354 359 360 359 359 363 363 361 359
342 345 346 347 348 348 349 350 350 348 348 346 347 347 346 346 348 350 350 351 351 354 353 353 352 349 346 347 351 351 352 350 348 348 347 356 362 361 361 361 361 361 360
341 344 345 346 345 346 346 349 350 350 350 349 348 348 348 346 347 349 349 349 349 351 351 350 349 346 346 348 347 345 346 350 348 347 347 353 361 363 362 363 362 361 362
343 344 346 346 346 346 346 347 348 349 350 352 352 351 350 350 348 348 348 348 351 351 352 350 348 348 347 346 345 343 343 349 351 350 349 349 354 361 362 363 363 363 363
344 346 346 346 347 347 347 348 349 348 351 351 352 353 352 351 349 350 348 348 349 350 351 350 349 347 344 342 340 340 345 350 350 349 348 346 347 353 360 363 361 361 363
345 345 347 350 349 348 348 349 350 351 351 351 351 352 352 351 351 350 348 348 349 350 349 349 347 347 345 345 345 347 349 350 349 346 343 343 345 345 351 359 361 361 362
346 346 346 349 349 349 349 350 350 351 348 349 351 348 350 353 353 350 349 350 352 351 349 349 349 346 344 344 343 345 346 345 345 344 344 344 346 348 348 351 357 359 361
346 347 348 349 349 349 349 349 349 349 348 348 348 348 352 354 355 353 350 350 351 350 350 348 345 345 343 342 340 341 343 344 347 345 343 344 346 348 349 349 350 352 359
346 346 346 347 348 349 346 346 346 345 348 349 350 352 353 353 350 345 347 350 351 349 349 347 345 341 341 340 338 340 339 341 342 343 345 345 346 347 349 350 349 346 348
344 346 346 347 347 349 350 348 347 346 347 349 350 352 353 353 351 349 347 347 349 349 348 347 346 342 338 339 336 334 330 335 337 339 344 343 344 346 348 349 351 351 350
343 345 346 347 348 348 351 348 349 349 349 349 349 351 353 354 353 352 351 351 351 349 348 347 347 341 338 339 339 338 330 325 332 336 337 340 341 342 344 346 347 347 350
344 347 348 347 347 347 349 348 346 345 343 346 347 350 352 354 353 350 348 347 346 346 343 343 346 342 339 333 337 340 338 336 327 324 333 336 339 339 340 341 343 345 347
344 346 347 347 346 347 348 348 347 345 347 349 349 350 349 343 343 341 341 340 339 339 340 339 337 337 337 336 334 334 334 333 333 329 322 326 328 330 335 339 341 343 345
343 345 346 345 346 348 348 349 347 346 346 346 346 344 341 335 336 339 339 339 339 338 336 336 336 336 336 335 334 333 331 330 330 328 324 323 322 324 329 331 334 340 342
Wind_Speed
1 4 14 18 19 18 18 18 19 19 18 17 17 16 15 14 14 13 12 11 11 12 13 13 12 12 12 12 13 12 13 11 11 11 10 10 9 9 7 8 8 6 8
5 3 16 16 17 17 17 17 17 17 17 16 16 15 14 13 13 13 12 12 11 12 13 13 12 10 10 13 11 11 10 10 9 9 8 9 8 8 8 6 6 6 6
6 6 10 15 16 17 17 16 16 15 16 16 15 14 14 13 13 13 12 13 12 12 11 12 12 11 10 10 11 9 9 8 7 7 8 4 5 6 6 7 6 5 3
7 5 6 13 13 15 16 15 15 15 16 15 14 13 13 12 12 13 11 12 11 10 11 10 11 11 10 11 10 8 7 5 5 6 4 3 4 4 4 6 6 6 5
6 6 8 13 13 14 14 13 14 14 15 13 14 13 12 12 11 10 10 10 11 11 11 10 10 9 9 9 8 6 5 2 3 4 2 2 1 3 4 5 6 7 5
5 5 10 13 13 13 13 13 13 13 13 12 12 12 11 11 9 10 9 9 9 9 10 9 8 8 8 7 5 4 3 4 5 4 3 3 2 3 5 6 6 5 5
5 5 7 11 12 12 11 12 12 12 11 11 11 10 10 9 9 9 8 6 7 8 7 8 7 6 5 4 2 3 4 6 4 2 4 5 4 5 6 6 6 5 6
6 5 5 11 12 11 11 11 10 11 11 10 9 9 9 9 8 7 5 5 4 5 4 5 5 3 3 3 4 4 4 4 4 1 2 5 6 8 8 8 8 7 7
4 5 4 4 8 11 10 10 10 9 9 9 8 8 8 7 6 5 4 3 2 1 1 2 2 2 3 4 5 6 5 5 2 1 3 4 10 11 11 10 9 9 8
4 4 4 4 4 4 4 9 9 8 8 7 7 7 6 5 5 4 3 2 4 3 4 4 4 5 5 5 7 7 8 7 2 2 4 4 11 11 11 11 11 10 10
4 4 4 4 4 3 3 4 6 8 6 5 4 4 4 1 1 1 3 4 4 4 6 6 5 5 7 7 7 7 8 3 4 3 3 9 12 13 13 13 12 12 12
6 4 4 4 4 4 2 2 3 2 1 1 1 1 1 2 2 2 4 6 6 7 8 7 7 5 6 3 3 6 2 5 4 4 4 10 13 16 16 14 13 14 13
7 5 5 5 5 5 2 2 1 0 1 1 1 2 2 3 2 2 2 3 3 5 3 4 4 3 4 4 5 4 4 4 3 4 6 11 13 17 16 14 14 15 15
7 7 5 6 5 5 2 2 3 2 2 2 3 4 2 2 3 2 2 3 3 2 4 3 2 4 5 5 5 7 6 4 4 4 5 11 10 15 17 16 15 16 16
9 8 7 6 6 5 4 3 3 3 3 4 4 4 2 3 3 3 3 3 3 3 2 3 3 2 4 5 5 6 7 5 5 4 4 11 10 13 17 18 16 16 18
10 10 8 9 7 6 5 5 4 3 4 4 3 4 5 4 4 3 3 4 3 2 2 2 3 3 4 4 6 6 7 8 6 6 5 5 10 11 15 17 18 17 18
8 9 10 10 8 8 7 6 4 4 4 4 4 5 5 5 5 5 4 4 3 2 4 2 3 2 4 3 6 6 6 7 7 6 6 5 6 12 14 17 19 19 19
7 9 8 8 9 9 7 6 4 4 3 4 4 3 5 6 6 4 4 4 2 2 2 2 2 3 3 3 4 5 4 5 7 6 6 6 5 7 9 15 16 18 19
11 10 9 8 9 9 7 5 4 5 4 4 3 3 4 4 4 4 3 4 2 3 3 2 2 1 3 4 5 5 5 5 7 6 8 7 7 8 6 11 15 16 18
10 9 9 8 8 7 4 3 2 2 3 3 3 3 4 3 2 2 3 4 2 3 3 2 2 2 3 4 6 7 6 6 5 5 6 7 8 8 8 8 6 8 15
9 8 9 9 8 6 3 3 3 4 3 3 3 5 5 4 3 2 2 2 2 2 3 2 2 2 2 2 3 4 4 6 5 3 4 6 7 7 7 7 5 5 7
13 13 10 11 8 9 6 3 3 3 3 3 3 4 6 5 4 3 3 3 3 2 3 3 2 1 1 1 2 2 5 5 2 8 3 5 7 4 6 7 6 7 7
13 12 12 12 11 10 9 3 1 1 2 1 3 3 4 4 4 3 3 3 2 1 2 1 1 1 2 1 0 3 3 3 8 2 8 3 5 6 6 6 7 8 8
15 12 13 12 12 10 9 7 6 5 5 4 4 1 2 3 2 3 3 4 4 2 3 1 1 1 1 4 2 1 4 4 4 7 1 5 5 6 9 8 8 9 9
14 13 13 11 11 10 10 11 8 5 4 1 1 2 1 1 4 4 4 4 4 2 2 1 1 1 1 2 1 2 2 2 4 4 11 8 8 7 7 7 8 8 10
14 14 13 13 13 11 10 11 9 8 6 4 3 2 1 2 1 1 3 4 4 3 1 1 2 2 2 2 3 2 2 2 4 4 7 11 12 10 6 8 9 8 9
Wind_Direction
32 118 137 104 100 96 95 93 95 100 104 105 105 106 104 105 108 110 113 110 103 98 90 89 84 85 93 96 96 95 98 101 102 104 104 101 98 90 77 89 93 112 116
109 99 109 102 99 101 100 101 101 103 105 103 102 104 104 104 109 109 110 111 105 96 97 95 96 91 89 94 93 105 107 107 105 109 114 122 122 123 119 109 114 105 100
112 104 109 108 105 104 101 100 101 103 104 105 106 110 107 106 107 112 111 106 111 104 98 105 108 104 90 98 104 95 100 93 99 111 97 94 138 134 125 134 116 104 109
121 104 108 113 109 102 99 103 106 106 104 105 106 107 109 107 105 102 101 103 102 107 109 101 96 98 96 95 97 107 110 107 99 105 95 95 117 149 142 137 133 130 135
108 116 129 119 116 106 99 101 104 106 109 109 110 112 114 105 105 103 109 110 113 111 115 115 104 102 101 103 102 103 112 136 143 126 107 69 5 177 173 166 154 140 127
111 115 127 130 126 119 112 110 111 108 108 112 113 113 113 108 106 109 109 114 105 103 107 105 104 105 96 85 74 56 3 311 269 234 204 181 167 244 205 184 171 164 161
126 124 127 130 129 132 124 118 114 112 110 108 111 113 113 104 107 107 112 102 115 105 106 98 102 100 91 82 51 17 354 352 7 272 201 179 189 221 219 222 210 197 189
123 119 129 134 135 137 128 119 121 121 118 117 118 114 103 99 97 103 114 101 97 94 88 96 101 90 41 15 346 334 336 347 20 28 184 195 201 213 221 223 227 216 207
119 119 106 116 141 140 129 130 131 124 119 113 107 103 99 97 102 111 100 95 86 77 34 346 1 340 349 343 335 339 340 333 52 254 217 208 208 217 228 222 224 224 221
128 131 137 119 105 107 134 143 138 133 127 123 116 106 104 111 135 145 142 200 193 215 243 262 279 306 312 316 318 319 319 319 291 263 235 224 224 224 227 231 231 230 231
152 159 151 135 130 131 125 152 144 152 151 143 128 124 92 127 37 15 232 246 271 237 246 252 254 268 293 304 299 294 287 287 276 263 228 229 226 227 230 230 225 231 238
179 182 167 157 155 162 162 111 142 174 111 129 86 0 340 299 297 277 276 269 285 276 269 268 277 282 297 294 275 275 251 255 259 246 244 234 230 226 230 224 224 224 232
185 180 175 173 174 175 189 147 156 182 226 285 296 277 295 301 311 299 293 298 304 291 296 309 309 327 341 309 300 283 265 276 261 260 258 240 237 230 232 230 217 223 227
177 188 178 183 177 189 178 185 201 211 231 249 247 253 244 271 277 283 271 265 264 263 270 276 295 313 313 294 290 300 289 257 268 265 265 277 250 225 223 227 227 222 224
185 188 188 178 186 190 192 200 211 221 225 240 248 255 243 255 276 282 277 277 274 280 261 283 281 273 280 289 290 284 295 276 254 255 258 269 265 232 223 222 228 231 225
184 190 182 188 190 180 197 209 212 214 224 225 236 247 251 230 247 259 285 282 284 279 282 268 264 256 265 270 269 275 280 274 263 260 251 260 266 259 238 233 230 232 227
193 187 187 187 182 189 200 210 215 222 224 243 240 235 244 240 233 235 245 268 267 271 302 339 298 289 291 269 265 272 263 269 267 257 258 258 268 260 253 246 240 238 228
186 187 185 188 187 195 200 208 217 226 234 251 251 255 244 250 233 234 237 253 278 309 327 318 283 296 274 276 279 277 264 267 267 250 253 251 246 260 252 249 250 244 241
193 184 184 184 184 194 203 209 215 225 240 248 256 255 264 280 248 234 242 262 290 298 291 283 294 286 305 306 297 281 274 263 264 268 265 267 260 254 252 256 250 249 244
194 193 187 188 186 185 189 203 231 242 254 259 257 262 271 266 263 244 264 268 260 271 285 304 298 283 263 296 306 303 289 277 263 258 278 277 265 259 256 250 253 258 254
191 182 190 180 191 171 161 173 195 207 213 232 220 241 248 248 256 260 273 284 277 273 271 288 281 298 302 336 321 314 286 288 285 309 278 274 282 277 265 250 252 253 259
196 198 191 199 186 192 192 185 179 168 210 199 183 216 225 234 234 240 241 265 261 265 284 294 258 298 282 352 326 277 325 326 5 326 315 296 293 309 303 302 283 266 259
200 197 199 202 197 199 198 133 106 32 347 231 220 228 228 235 233 209 230 253 276 205 291 314 337 9 333 346 300 293 327 288 324 329 315 326 329 310 307 306 295 282 273
205 199 200 201 200 204 191 193 180 186 199 210 205 197 292 307 239 175 125 101 83 78 70 44 54 56 126 302 304 230 264 289 311 310 315 313 311 323 302 294 294 290 279
195 196 200 196 203 203 191 198 200 211 222 224 219 239 359 65 113 113 117 104 100 97 97 28 349 333 210 262 216 316 300 289 293 288 308 311 301 295 288 275 275 276 278
196 195 195 194 202 200 193 198 197 203 206 212 231 235 159 122 103 111 118 123 127 132 80 311 311 284 268 279 295 280 266 297 302 299 294 302 295 301 287 288 276 267 265